RH
33 21 14 26 31 21 21 21 17 42 33 28 33 27 38 62 61 62 59 57 77 61 48 54 50 52 39 33 28 33 38 37 35 28 26 26 25 24 25 28 30 25 21 31
43 26 14 18 31 27 25 23 23 20 66 64 47 53 41 49 28 72 75 65 65 66 50 52 65 86 46 29 27 30 32 30 30 26 26 24 25 33 40 35 26 26 24 58
62 34 21 13 24 33 27 22 22 23 20 28 54 60 48 46 53 54 52 60 65 54 52 62 71 42 31 30 28 29 27 27 27 26 26 31 41 40 34 26 28 26 74 78
69 38 33 16 16 27 30 29 27 24 25 43 40 45 38 45 56 65 64 67 54 53 59 74 72 34 28 30 29 28 28 26 25 28 37 44 42 32 26 29 27 89 74 70
91 50 40 32 18 13 23 32 40 27 27 25 37 48 41 46 49 50 62 74 75 74 78 92 48 30 26 28 29 28 25 26 38 45 47 37 28 27 31 34 86 82 85 79
95 73 45 43 33 19 13 24 30 39 46 43 39 36 32 30 27 32 33 48 70 74 93 88 55 36 30 27 29 29 42 47 48 44 35 29 32 33 44 93 86 76 75 69
98 90 55 49 45 35 22 14 16 27 27 34 37 36 30 27 28 29 30 29 41 58 67 94 66 57 52 52 52 52 51 47 37 32 31 35 34 57 92 93 86 78 78 74
100 97 90 63 53 46 40 28 18 16 25 28 23 22 27 28 25 26 27 28 29 45 65 58 66 86 75 67 62 47 40 38 35 37 41 52 77 94 97 100 94 90 75 57
100 99 97 74 65 61 54 47 31 20 21 34 39 37 38 40 38 37 31 27 25 26 50 66 52 50 54 49 44 50 50 36 43 41 67 97 98 98 100 95 88 65 55 61
100 100 97 84 73 66 65 61 56 44 30 19 32 40 36 40 33 26 24 20 19 22 27 51 64 51 53 53 59 59 46 39 44 74 95 94 100 99 99 90 64 52 61 58
100 100 99 95 80 73 74 77 75 67 58 37 24 29 37 34 32 27 21 20 17 16 20 29 53 70 70 67 65 58 41 46 65 89 97 96 100 98 89 65 54 60 53 52
99 100 100 99 99 88 83 77 69 63 62 62 44 33 26 43 45 40 28 22 20 21 17 23 32 50 65 70 63 50 53 53 72 95 97 96 100 84 68 61 56 54 50 51
100 100 99 100 96 72 72 67 45 47 42 32 25 25 24 27 44 50 35 35 34 32 29 27 34 39 49 51 52 39 43 59 69 93 90 99 99 74 65 59 49 45 47 49
100 100 99 96 91 68 50 48 40 32 27 22 11 10 16 30 54 60 41 44 43 48 50 42 37 39 43 49 44 34 38 61 65 92 83 85 91 73 62 51 48 54 52 50
100 100 98 97 91 56 48 40 30 17 6 3 2 5 11 61 91 58 41 55 59 70 82 75 67 56 50 42 43 44 30 44 55 85 91 70 91 78 64 52 50 52 40 48
100 99 96 98 68 56 41 23 8 4 2 7 87 95 85 100 98 64 62 68 74 86 98 100 96 95 81 69 74 54 24 32 53 64 81 77 82 70 57 52 46 36 46 55
100 98 100 82 64 44 24 10 22 64 85 100 100 98 100 99 96 85 76 91 93 96 100 91 98 91 86 88 97 75 43 30 43 58 59 72 79 67 53 45 35 42 59 62
100 100 97 78 52 31 12 25 67 94 100 100 98 100 100 87 97 96 96 100 100 100 98 94 94 82 84 76 82 78 65 48 40 58 57 72 70 60 51 39 42 59 61 60
100 100 98 59 41 16 23 52 45 74 91 97 96 100 100 97 95 99 100 98 99 94 88 84 76 78 70 73 67 66 65 66 54 67 61 62 67 56 46 51 60 62 63 68
100 100 98 58 24 17 26 41 61 72 73 82 90 88 94 95 100 100 92 93 95 96 98 96 89 82 78 74 78 77 76 67 64 68 70 68 64 57 52 57 60 61 71 79
100 100 97 45 26 32 43 54 66 71 82 88 95 94 99 91 93 96 93 99 98 100 98 98 92 88 78 81 94 97 90 80 76 76 68 72 70 61 64 69 65 67 76 85
100 100 99 43 34 37 42 53 70 81 87 90 84 90 93 95 99 99 98 99 100 98 100 100 94 92 89 90 98 100 89 81 91 97 92 90 86 85 83 74 78 82 82 79
100 100 100 84 36 37 51 64 77 74 78 71 74 83 79 75 85 90 95 99 98 96 99 100 100 100 100 95 100 100 94 78 76 88 99 100 100 95 96 94 89 91 91 90
100 100 100 100 60 33 48 66 74 80 83 74 65 63 59 67 67 71 76 78 81 84 91 99 98 100 100 100 100 100 100 100 96 100 100 98 99 97 93 91 91 89 92 98
100 98 100 100 99 64 43 50 63 72 82 76 66 61 64 56 46 53 64 73 68 74 77 81 98 100 100 100 100 100 100 100 100 100 100 100 100 100 100 100 99 87 83 92
83 99 99 100 100 98 52 44 47 57 74 92 76 70 65 57 49 50 67 74 84 84 75 67 70 74 81 94 97 95 97 97 99 100 100 100 100 100 100 100 100 100 99 100
92 98 100 100 100 100 89 50 55 57 67 83 85 74 62 55 55 47 68 99 100 98 91 83 79 77 74 71 70 70 76 87 96 96 96 98 100 100 100 100 100 100 100 100
Wind_Speed
32 33 33 25 25 24 33 32 28 30 18 12 11 9 5 13 15 18 19 21 21 16 17 17 20 20 20 22 20 17 18 17 18 19 16 14 13 13 13 16 16 17 20 17
26 27 28 22 16 21 23 27 24 18 22 16 9 10 13 11 12 17 16 17 17 15 17 20 21 19 19 16 16 17 18 18 18 15 14 13 13 14 14 16 17 15 21 19
20 22 22 21 14 16 18 18 21 15 12 13 20 20 16 12 12 11 9 11 13 13 16 17 19 16 18 17 17 18 17 16 15 14 14 13 14 15 16 15 16 15 16 13
13 17 18 17 12 11 13 14 12 13 8 10 12 13 12 10 9 7 5 5 10 12 14 14 16 13 16 16 15 16 16 15 15 14 13 13 16 17 16 15 16 8 13 19
9 13 14 15 14 11 14 11 7 9 8 8 7 10 12 11 10 7 6 6 7 11 13 18 15 15 16 16 16 14 16 16 14 14 14 16 16 15 14 12 10 9 9 7
12 9 12 11 12 10 9 11 6 4 2 3 5 7 7 6 4 4 5 4 3 6 11 18 14 15 15 17 16 16 15 14 15 16 16 16 15 14 13 12 9 8 6 5
24 7 11 10 9 8 7 8 12 13 10 9 7 5 3 0 0 1 2 2 2 6 7 16 16 15 15 15 15 15 16 16 16 17 16 15 14 13 12 11 7 8 9 12
28 14 11 11 10 8 6 7 10 13 14 18 17 17 14 12 7 7 6 6 6 8 12 12 13 20 20 17 16 16 16 15 17 17 16 13 11 11 10 9 7 9 10 13
28 21 12 14 13 11 8 8 9 13 21 17 17 17 17 14 14 14 14 13 12 12 15 18 16 17 18 18 18 17 16 17 16 15 12 11 11 9 8 8 9 8 9 11
28 27 17 15 17 15 13 11 13 15 15 25 26 22 20 19 17 14 13 15 15 16 16 20 24 22 20 19 17 17 17 15 16 14 13 11 13 11 10 10 8 6 6 9
30 27 24 15 19 21 20 18 18 20 20 23 26 33 30 28 24 21 19 17 15 18 18 18 24 27 27 26 22 19 18 15 16 16 14 12 16 13 12 10 8 5 5 10
29 29 26 22 18 24 25 28 27 27 27 28 30 32 41 36 34 28 23 20 20 22 24 22 22 26 25 24 23 21 17 17 17 15 14 15 14 13 13 11 8 5 7 11
27 28 25 24 23 24 26 30 34 35 37 41 44 40 42 48 41 36 26 19 15 19 24 25 24 26 27 25 23 22 20 17 17 20 17 15 16 16 15 13 9 7 11 13
25 26 23 25 25 27 32 36 44 51 56 57 53 52 55 51 46 38 27 21 15 16 20 23 24 26 27 25 24 22 23 20 22 22 20 18 20 18 16 14 12 13 14 16
23 24 23 24 26 28 34 43 51 60 55 35 28 37 41 40 41 37 31 21 15 16 17 19 20 22 24 26 24 23 27 24 21 21 25 19 19 17 18 17 18 17 17 19
20 21 23 24 23 29 38 44 48 25 3 14 20 17 25 36 35 31 26 19 17 18 17 18 19 17 17 21 20 27 26 24 22 24 26 20 19 23 24 22 20 18 20 20
20 20 20 18 21 30 34 32 14 20 21 17 20 21 28 33 30 26 22 19 16 19 19 20 20 19 18 16 17 23 25 25 25 26 28 25 25 26 22 21 20 19 20 19
14 14 14 14 21 26 21 8 26 25 24 26 18 16 21 26 26 21 18 18 17 18 24 21 21 20 22 18 19 20 24 25 26 26 27 28 27 25 24 22 21 19 17 16
11 11 9 12 17 13 7 19 17 17 17 13 18 16 16 22 22 22 17 16 14 11 14 19 19 19 20 21 20 21 23 23 24 26 27 29 28 24 24 24 22 18 16 16
10 9 6 7 4 9 16 11 15 13 11 9 11 14 16 19 21 18 16 16 15 14 14 15 17 18 18 17 17 20 22 22 24 27 27 28 29 27 27 24 20 18 16 16
9 8 5 4 10 15 14 14 13 13 12 13 13 12 12 12 15 15 15 14 14 15 15 14 14 14 16 15 14 15 18 20 21 23 25 25 27 28 26 21 20 19 19 18
9 11 9 14 20 19 17 14 15 14 14 13 11 11 11 9 9 10 9 10 12 12 13 12 13 14 15 12 11 9 13 14 15 18 20 22 23 22 21 21 21 21 21 20
15 13 14 13 27 29 26 19 19 15 14 15 15 14 11 10 10 11 10 8 7 12 13 13 12 11 10 9 11 17 19 18 15 14 16 19 21 21 22 22 22 22 23 23
17 18 19 19 20 32 30 28 24 23 22 20 18 17 15 13 14 15 14 12 10 8 7 10 12 12 8 8 12 17 20 20 15 12 14 20 22 23 23 23 23 20 19 21
22 21 23 22 23 25 34 35 33 28 27 24 22 20 18 16 15 15 17 16 12 8 7 4 5 7 9 10 9 8 7 9 8 12 14 18 18 20 19 18 22 23 20 19
26 25 23 24 24 28 31 38 39 36 33 33 30 25 23 23 19 18 19 18 13 14 13 10 7 6 6 6 8 10 10 11 11 10 10 14 17 18 18 16 19 20 24 22
26 25 27 26 25 28 32 35 38 40 40 38 37 33 28 29 25 20 19 16 18 20 21 19 17 16 15 14 13 12 12 12 13 14 15 15 13 13 15 18 21 22 20 19
Wind_Direction
355 8 9 17 21 29 36 21 19 64 114 94 33 46 90 122 118 143 156 161 160 163 166 175 175 179 186 193 192 189 188 188 193 195 195 203 210 219 226 242 259 270 274 284
350 6 14 8 12 12 24 27 17 39 66 65 69 90 105 112 152 138 140 158 170 172 174 174 181 189 192 187 185 186 192 193 201 200 206 210 215 232 244 254 267 274 273 290
346 359 14 13 340 343 356 19 28 21 31 32 58 69 94 93 117 138 146 163 172 176 179 179 182 188 190 192 189 190 195 200 206 209 213 219 233 246 255 261 264 264 281 281
339 345 10 20 1 326 350 13 31 32 20 44 70 72 68 69 88 100 142 175 185 184 184 193 187 194 195 199 197 198 203 209 213 213 221 236 251 255 257 257 261 277 280 275
329 329 354 11 14 356 295 334 16 8 11 8 55 91 81 73 60 55 73 121 180 188 201 190 190 188 196 201 206 206 210 214 218 225 239 248 252 254 259 262 263 265 252 262
293 311 327 351 7 5 344 271 288 345 329 87 97 75 80 79 56 41 29 69 140 188 200 192 197 198 199 202 204 210 213 223 234 244 245 247 249 248 246 232 232 233 247 303
283 278 296 317 343 352 343 317 279 256 274 262 257 256 248 174 150 92 25 350 220 200 199 206 200 202 201 200 207 217 227 235 241 243 247 254 245 239 221 224 226 241 285 311
277 271 268 284 301 321 310 309 303 274 269 260 265 265 254 249 244 239 247 250 260 234 220 207 213 214 215 216 217 224 229 234 242 248 250 242 239 219 218 221 236 256 298 305
274 268 261 272 280 285 289 280 280 286 269 256 248 254 243 235 232 228 231 235 242 247 229 215 211 211 208 210 211 218 229 241 244 240 230 225 204 195 206 221 251 277 299 314
263 269 262 265 275 275 275 274 276 267 268 263 253 245 244 237 234 239 243 241 247 243 238 224 215 215 217 220 223 230 235 239 233 227 222 213 201 199 212 231 244 268 299 316
263 263 267 262 275 277 279 282 278 272 262 257 258 246 242 244 239 237 240 250 246 247 246 233 224 221 224 229 231 234 237 237 227 222 220 218 205 207 217 222 238 253 310 307
261 260 267 268 270 278 281 287 287 282 272 260 258 253 243 239 241 239 235 239 248 246 241 239 230 223 222 224 225 226 231 228 223 225 223 217 215 218 224 229 237 260 294 305
255 257 267 279 281 283 286 289 290 288 287 278 267 252 240 232 229 227 230 232 245 247 238 237 233 226 224 223 222 225 230 228 221 225 222 214 215 216 220 232 241 267 277 290
249 254 271 284 287 290 291 295 293 295 291 281 269 247 229 221 218 217 228 232 238 244 237 236 234 232 226 227 223 224 225 228 221 221 224 218 216 216 223 231 255 272 276 279
248 259 277 287 294 298 301 302 300 298 294 281 253 233 223 211 204 210 223 221 222 232 235 231 232 234 234 231 229 227 225 224 223 220 232 224 223 227 233 242 257 271 277 277
244 267 281 292 303 307 307 311 311 313 38 114 111 136 176 186 186 197 207 212 213 227 225 225 225 236 246 237 239 235 229 226 226 225 232 228 225 231 235 244 257 271 278 275
246 268 286 301 312 311 317 327 56 101 100 125 147 163 178 181 187 194 202 210 219 217 221 229 227 238 247 238 242 248 239 232 228 226 229 228 228 234 240 246 258 272 275 275
242 268 290 311 315 323 328 83 115 118 116 140 146 154 167 182 186 193 194 197 201 222 232 234 233 240 244 248 250 251 252 245 231 233 229 228 232 239 243 248 259 265 267 271
247 275 295 321 331 344 65 114 113 134 131 114 136 152 167 175 184 186 201 223 219 227 225 226 241 248 251 255 258 257 257 257 238 235 230 230 233 236 240 249 255 258 261 265
244 273 288 338 7 112 138 145 138 139 154 160 164 171 175 185 189 204 222 224 227 228 232 240 239 241 250 254 249 250 252 249 237 234 231 231 234 237 245 249 253 252 255 256
242 261 254 193 165 151 154 155 158 156 164 164 159 159 170 181 194 200 208 225 229 233 238 245 248 260 263 255 246 248 251 247 238 235 234 236 238 241 246 246 243 248 251 253
260 257 232 195 193 194 197 196 188 178 171 176 178 170 171 177 174 177 200 218 226 234 222 229 251 257 267 268 238 235 259 256 249 243 239 238 240 241 240 241 246 251 252 253
266 254 251 213 203 206 210 209 197 203 196 193 194 200 210 215 221 228 234 232 241 237 230 230 234 236 259 266 222 225 245 270 276 263 248 241 237 236 240 248 254 260 255 250
257 253 249 238 222 211 209 210 210 212 209 206 208 213 222 230 238 240 243 246 260 253 241 240 238 227 224 217 221 230 246 265 271 263 258 239 237 240 242 247 250 260 248 247
261 253 250 250 232 226 219 215 215 219 222 220 219 223 226 233 245 252 249 245 251 240 246 249 233 230 235 242 243 232 222 224 228 237 233 233 238 241 245 252 247 249 246 245
259 247 246 246 248 230 223 221 220 221 228 228 226 232 236 237 247 253 248 243 244 235 236 242 252 272 278 272 264 264 264 264 260 249 231 228 235 242 246 236 235 238 250 254
260 250 247 249 245 245 226 226 229 228 230 235 235 239 245 243 247 257 253 247 237 237 240 247 256 264 268 271 273 277 282 284 285 285 283 277 261 246 240 242 246 246 242 252